Regional Weather Roundup
Issued by NWS Goodland, KS

Home | Current Version | Previous Version | Text Only | Print | Product List | Glossary Off
Versions: 1 2 3 4 5 6 7 8 9 10 11 12 13 14 15 16 17 18 19 20 21 22 23 24 25 26 27 28 29 30 31 32 33 34 35 36 37 38 39 40 41 42 43 44 45 46 47 48 49 50

000
ASUS43 KGLD 271159
RWRGLD

GOODLAND FORECAST AREA HOURLY WEATHER ROUNDUP
NATIONAL WEATHER SERVICE GOODLAND KS
600 AM MDT FRI MAR 27 2015

...OFFICIAL OBSERVATIONS...

CITY           SKY/WX    TMP DP  RH WIND       PRES   REMARKS
GOODLAND KS    CLOUDY    32  28  85 SE5       30.21S
HILL CITY KS   LGT SNOW  32  30  92 NE5       30.26S FOG
IMPERIAL NEB     N/A     33  30  88 S6        30.20F
MCCOOK NEB     CLOUDY    32  30  92 E5        30.24R
AKRON CO       PTCLDY    30  28  92 SE7       30.17R
BURLINGTON CO  CLOUDY    32  28  85 E6        30.19R
LIMON CO       PTCLDY    32  27  81 CALM      30.16S
$$

...UNOFFICIAL OBSERVATIONS...

CITY           SKY/WX    TMP DP  RH WIND       PRES   REMARKS
COLBY KS       LGT SNOW  32  32 100 E3        30.23S
GOVE KS          N/A     33  32  96 MISG        N/A
LENORA KS        N/A     30  32 100 MISG        N/A
NORTON KS      CLOUDY    34  28  80 NE3       30.24R
SHARON SPRINGS   N/A     33  29  86 E8          N/A
TRIBUNE KS     MOCLDY    34  34 100 NE7       30.22R
KIT CARSON CO    N/A     38  32  79 MISG        N/A
YUMA CO          N/A     33  28  83 E7          N/A
$$



USA.gov is the U.S. government's official web portal to all federal, state and local government web resources and services.